Weather History for Madera, CA

Change the Weather History Date:

Saturday, December 29, 2012

  Actual Average Record
Temperature  
Mean Temperature 45 °F 44 °F  
Max Temperature 53 °F 52 °F 63 °F (1999)
Min Temperature 37 °F 36 °F 28 °F (1998)
Degree Days  
Heating Degree Days 20    
Month to date heating degree days 480  
Since 1 July heating degree days 848  
Cooling Degree Days 0    
Month to date cooling degree days 0  
Year to date cooling degree days 1737  
Moisture  
Dew Point 39 °F    
Average Humidity 74    
Maximum Humidity 93    
Minimum Humidity 54    
Precipitation  
Precipitation T in 0.07 in 0.41 in (2010)
Month to date precipitation 2.52 1.57  
Year to date precipitation 10.92 11.89  
Since 1 July precipitation 4.70 3.89  
Snow  
Snow 0.00 in - - ()
Month to date snowfall 0.0  
Since 1 July snowfall 0.0  
Snow Depth 0.00 in    
Sea Level Pressure  
Sea Level Pressure 30.05 in    
Wind  
Wind Speed 4 mph (NNW)    
Max Wind Speed 8 mph    
Max Gust Speed -    
Visibility 5 miles    
Events Rain    
T = Trace of Precipitation, MM = Missing Value Source: NWS Daily Summary

Daily Weather History Graph

Daily Weather History Graph

Search for Another Location

Airport:

Trip Planner

Search our weather history database for the weather conditions in past years. The results will help you decide how hot, cold, wet, or windy it might be!

Date:

Astronomy

Dec. 29, 2012 Rise Set
Actual Time 7:13 AM PST 4:52 PM PST
Civil Twilight 6:44 AM PST 5:21 PM PST
Nautical Twilight 6:11 AM PST 5:54 PM PST
Astronomical Twilight 5:40 AM PST 6:25 PM PST
Moon 6:27 PM PST (12/29) 7:52 AM PST (12/29)
Length of Visible Light 10h 37m
Length of Day
9h 39m
Full, 98% of the Moon is Illuminated
Dec 29
Full
Jan 4
Last Quarter
Jan 11
New
Jan 18
First Quarter
Jan 26
Full

Hourly Weather History & Observations

Time (PST) Temp. Windchill Dew Point Humidity Pressure Visibility Wind Dir Wind Speed Gust Speed Precip Events Conditions
12:53 AM 44.1 °F 41.5 °F 39.9 °F 85% 30.05 in 6.0 mi ESE 4.6 mph - N/A   Overcast
1:53 AM 44.1 °F 41.5 °F 39.9 °F 85% 30.06 in 7.0 mi WSW 4.6 mph - N/A   Overcast
2:53 AM 44.1 °F 41.5 °F 39.9 °F 85% 30.04 in 6.0 mi East 4.6 mph - N/A   Overcast
4:53 AM 42.1 °F - 39.0 °F 89% 30.01 in 6.0 mi Calm Calm - N/A   Mostly Cloudy
5:53 AM 41.0 °F 36.4 °F 37.9 °F 89% 30.01 in 5.0 mi West 6.9 mph - N/A   Overcast
6:53 AM 41.0 °F 39.0 °F 37.9 °F 89% 30.02 in 5.0 mi West 3.5 mph - N/A   Overcast
7:53 AM 41.0 °F - 39.0 °F 93% 30.04 in 3.0 mi Calm Calm - N/A   Scattered Clouds
8:27 AM 42.8 °F - 37.4 °F 81% 30.04 in 2.5 mi Calm Calm - N/A   Overcast
8:43 AM 42.8 °F - 39.2 °F 87% 30.05 in 3.0 mi Calm Calm - N/A   Overcast
8:53 AM 43.0 °F - 39.9 °F 89% 30.06 in 3.0 mi Calm Calm - N/A   Mostly Cloudy
9:53 AM 44.1 °F 39.5 °F 39.9 °F 85% 30.09 in 3.0 mi East 8.1 mph - 0.00 in Rain Light Rain
10:11 AM 44.6 °F 40.7 °F 41.0 °F 87% 30.09 in 2.5 mi ENE 6.9 mph - 0.00 in Rain Light Rain
10:19 AM 44.6 °F 40.7 °F 41.0 °F 87% 30.08 in 3.0 mi ENE 6.9 mph - 0.00 in Rain Light Rain
10:53 AM 46.0 °F 42.5 °F 42.1 °F 86% 30.07 in 5.0 mi ENE 6.9 mph - 0.00 in   Overcast
11:53 AM 48.9 °F - 41.0 °F 74% 30.03 in 9.0 mi East 5.8 mph - N/A   Overcast
12:53 PM 51.1 °F - 39.9 °F 66% 30.01 in 10.0 mi ESE 5.8 mph - N/A   Mostly Cloudy
1:53 PM 51.1 °F - 37.9 °F 61% 30.00 in 10.0 mi Variable 3.5 mph - N/A   Partly Cloudy
3:53 PM 53.1 °F - 37.0 °F 55% 30.01 in 8.0 mi Calm Calm - N/A   Scattered Clouds
4:53 PM 48.9 °F - 37.9 °F 66% 30.02 in 8.0 mi North 3.5 mph - N/A   Clear
5:53 PM 43.0 °F - 37.0 °F 80% 30.03 in 10.0 mi Calm Calm - N/A   Clear
6:53 PM 42.1 °F 39.2 °F 37.0 °F 82% 30.05 in 9.0 mi West 4.6 mph - N/A   Clear
7:53 PM 39.9 °F 36.7 °F 37.0 °F 89% 30.06 in 5.0 mi WNW 4.6 mph - N/A   Partly Cloudy
8:53 PM 39.0 °F - 37.0 °F 93% 30.06 in 3.0 mi Calm Calm - N/A   Clear
9:15 PM 39.2 °F - 37.4 °F 93% 30.06 in 2.0 mi Calm Calm - N/A   Clear
9:23 PM 39.2 °F 35.9 °F 37.4 °F 93% 30.06 in 1.8 mi West 4.6 mph - N/A   Clear
9:43 PM 37.4 °F 32.8 °F 35.6 °F 93% 30.07 in 3.0 mi West 5.8 mph - N/A   Clear
10:53 PM 37.9 °F 35.5 °F 36.0 °F 93% 30.09 in 4.0 mi NW 3.5 mph - N/A   Clear
11:53 PM 39.0 °F 36.8 °F 37.0 °F 93% 30.08 in 4.0 mi WNW 3.5 mph - N/A   Overcast